This demonstration page uses our WeatherBlox Daily Observations layout. Learn more.

Left ArrowRight Arrow

Hourly Observations for August 6, 2022

Temp ( °F °C ) Dew Point ( °F °C ) Humidity (%) Winds ( mph kmh ) Pressure ( in mb ) Visibility ( mi km ) Precip ( " mm )
12:56 am 00:56 Clear 79 26.2 71 21.4 75 75 SE 9 15 29.89 1012 10 16 0.00 0.00
1:56 am 01:56 Clear 79 25.9 71 21.5 77 77 SE 6 9 29.92 1013 10 16 0.00 0.00
2:56 am 02:56 Clear 77 24.8 71 21.5 82 82 E 5 7 29.92 1013 10 16 0.00 0.00
3:56 am 03:56 Clear 77 24.8 71 21.7 83 83 E 5 7 29.90 1013 10 16 0.00 0.00
4:56 am 04:56 Clear 76 24.6 71 21.7 84 84 ESE 5 7 29.90 1013 10 16 0.00 0.00
5:56 am 05:56 Clear 76 24.6 71 21.7 84 84 ESE 5 7 29.90 1013 10 16 0.00 0.00
6:56 am 06:56 Sunny 78 25.3 72 22 82 82 SE 8 13 29.89 1012 9 14 0.00 0.00
7:56 am 07:56 Sunny 79 26 72 22 79 79 SE 8 13 29.89 1012 10 16 0.00 0.00
8:56 am 08:56 Sunny 82 27.6 72 22.1 72 72 S 9 15 29.91 1013 10 16 0.00 0.00
9:56 am 09:56 Sunny 88 31.2 71 21.9 58 58 S 7 11 29.93 1014 10 16 0.00 0.00
10:56 am 10:56 Sunny 91 32.5 71 21.6 53 53 S 8 13 29.93 1014 10 16 0.00 0.00
11:56 am 11:56 Sunny 93 34.1 71 21.5 48 48 S 9 15 29.92 1013 10 16 0.00 0.00
12:56 pm 12:56 Sunny 96 35.7 71 21.9 45 45 SSE 12 19 29.90 1012 9 14 0.00 0.00
1:56 pm 13:56 Sunny 97 36.2 71 21.9 43 43 SE 14 22 29.90 1012 10 16 0.00 0.00
2:56 pm 14:56 Sunny 100 37.8 68 20.1 36 36 S 13 20 29.89 1012 10 16 0.00 0.00
3:56 pm 15:56 Sunny 100 37.6 71 21.6 39 39 SSE 16 26 29.87 1011 10 16 0.00 0.00
4:56 pm 16:56 Partly Cloudy 102 38.7 67 19.5 33 33 SSE 14 22 29.87 1011 10 16 0.00 0.00
5:56 pm 17:56 Sunny 100 38 72 22 40 40 SSE 16 26 29.87 1011 10 16 0.00 0.00
6:56 pm 18:56 Sunny 98 36.6 73 22.7 45 45 SSE 12 19 29.87 1011 10 16 0.00 0.00
7:56 pm 19:56 Mostly Cloudy 94 34.4 74 23.4 53 53 ESE 6 9 29.87 1012 10 16 0.00 0.00
8:56 pm 20:56 Mostly Cloudy 90 32.2 74 23.1 59 59 SSE 8 13 29.89 1012 10 16 0.00 0.00
9:56 pm 21:56 Mostly Cloudy 87 30.5 73 22.9 64 64 SE 7 11 29.91 1013 10 16 0.00 0.00
10:56 pm 22:56 Partly Cloudy 86 30.2 72 22.3 63 63 SSE 10 17 29.91 1013 10 16 0.00 0.00
11:56 pm 23:56 Mostly Cloudy 85 29.3 72 22 65 65 SE 7 11 29.92 1013 10 16 0.00 0.00

Powered by AerisWeather